,,PA_Meas_PMT16A,,PR_Meas_QMR101_102,,RH_Meas_QMH101,,SR_Meas_QMS101,,TA_Meas_QMH101,,GenWind,,GenWind,
time,status,PA,status,PR,status,RH,status,SR,status,TA,status,DirAvg,status,SpdAvg,
2011-09-18, 00:00:04,VALID,917.998,VALID,0,VALID,94.6066,VALID,0,VALID,21.8469,VALID,293,VALID,0.075,
2011-09-18, 00:01:04,VALID,917.995,VALID,0,VALID,94.6447,VALID,0,VALID,21.8469,VALID,293,VALID,0.288672,
2011-09-18, 00:02:04,VALID,917.996,VALID,0,VALID,94.7362,VALID,0,VALID,21.8469,VALID,293,VALID,0,
2011-09-18, 00:03:04,VALID,917.979,VALID,0,VALID,94.7743,VALID,0,VALID,21.8664,VALID,293,VALID,0.00976563,
2011-09-18, 00:04:04,VALID,917.972,VALID,0,VALID,94.7972,VALID,0,VALID,21.8664,VALID,293,VALID,0.417969,
2011-09-18, 00:05:04,VALID,917.986,VALID,0,VALID,94.7057,VALID,0,VALID,21.8876,VALID,293,VALID,0.4375,
2011-09-18, 00:06:04,VALID,917.972,VALID,0,VALID,94.6981,VALID,0,VALID,21.8079,VALID,293,VALID,0.046875,
2011-09-18, 00:07:04,VALID,917.976,VALID,0,VALID,94.7591,VALID,0,VALID,21.7883,VALID,293,VALID,0,
2011-09-18, 00:08:04,VALID,917.95,VALID,0,VALID,94.8429,VALID,0,VALID,21.785,VALID,293,VALID,0,
2011-09-18, 00:09:04,VALID,917.956,VALID,0,VALID,94.9192,VALID,0,VALID,21.8274,VALID,293,VALID,0.174609,
2011-09-18, 00:10:04,VALID,917.949,VALID,0,VALID,94.8353,VALID,0,VALID,21.8062,VALID,296,VALID,0.434375,
2011-09-18, 00:11:04,VALID,917.939,VALID,0,VALID,94.8429,VALID,0,VALID,21.8062,VALID,5,VALID,0.605859,
2011-09-18, 00:12:04,VALID,917.924,VALID,0,VALID,94.8963,VALID,0,VALID,21.7232,VALID,5,VALID,0.504687,
2011-09-18, 00:13:04,VALID,917.95,VALID,0,VALID,94.8658,VALID,0,VALID,21.7688,VALID,5,VALID,0.446484,
2011-09-18, 00:14:04,VALID,917.934,VALID,0,VALID,94.8734,VALID,0,VALID,21.707,VALID,5,VALID,0.319922,
2011-09-18, 00:15:04,VALID,917.92,VALID,0,VALID,94.9649,VALID,0,VALID,21.8112,VALID,5,VALID,0.202344,
2011-09-18, 00:16:04,VALID,917.898,VALID,0,VALID,94.9801,VALID,0,VALID,21.7282,VALID,5,VALID,0,
2011-09-18, 00:17:04,VALID,917.879,VALID,0,VALID,95.0183,VALID,0,VALID,21.6908,VALID,5,VALID,0,
2011-09-18, 00:18:04,VALID,917.857,VALID,0,VALID,95.0792,VALID,0,VALID,21.7315,VALID,5,VALID,0,
2011-09-18, 00:19:04,VALID,917.847,VALID,0,VALID,95.1402,VALID,0,VALID,21.7298,VALID,5,VALID,0.109766,
2011-09-18, 00:20:04,VALID,917.851,VALID,0,VALID,95.2165,VALID,0,VALID,21.7917,VALID,5,VALID,0.174219,
2011-09-18, 00:21:04,VALID,917.869,VALID,0,VALID,95.1707,VALID,0,VALID,21.7493,VALID,5,VALID,0.141016,
2011-09-18, 00:22:04,VALID,917.882,VALID,0,VALID,95.1707,VALID,0,VALID,21.7477,VALID,5,VALID,0.0632813,
2011-09-18, 00:23:04,VALID,917.85,VALID,0,VALID,95.1021,VALID,0,VALID,21.8095,VALID,5,VALID,0.342187,
2011-09-18, 00:24:04,VALID,917.847,VALID,0,VALID,95.1021,VALID,0,VALID,21.7883,VALID,5,VALID,0.619531,
2011-09-18, 00:25:04,VALID,917.841,VALID,0,VALID,95.1631,VALID,0,VALID,21.7883,VALID,5,VALID,0.71875,
2011-09-18, 00:26:04,VALID,917.829,VALID,0,VALID,95.1631,VALID,0,VALID,21.8274,VALID,5,VALID,0.712109,
2011-09-18, 00:27:04,VALID,917.816,VALID,0,VALID,95.1097,VALID,0,VALID,21.8274,VALID,5,VALID,0.710547,
2011-09-18, 00:28:04,VALID,917.808,VALID,0,VALID,95.0564,VALID,0,VALID,21.8469,VALID,5,VALID,0.491016,
2011-09-18, 00:29:04,VALID,917.82,VALID,0,VALID,95.003,VALID,0,VALID,21.8647,VALID,5,VALID,0.05625,
2011-09-18, 00:30:04,VALID,917.813,VALID,0,VALID,94.8887,VALID,0,VALID,21.8502,VALID,5,VALID,0.288281,
2011-09-18, 00:31:04,VALID,917.857,VALID,0,VALID,94.8582,VALID,0,VALID,21.8257,VALID,5,VALID,0.0414063,
2011-09-18, 00:32:04,VALID,917.858,VALID,0,VALID,94.8048,VALID,0,VALID,21.829,VALID,5,VALID,0,
2011-09-18, 00:33:04,VALID,917.828,VALID,0,VALID,94.82,VALID,0,VALID,21.7867,VALID,5,VALID,0.0769531,
2011-09-18, 00:34:04,VALID,917.829,VALID,0,VALID,94.8429,VALID,0,VALID,21.829,VALID,5,VALID,0.295703,
2011-09-18, 00:35:04,VALID,917.814,VALID,0,VALID,94.8658,VALID,0,VALID,21.8892,VALID,5,VALID,0.0265625,
2011-09-18, 00:36:04,VALID,917.787,VALID,0,VALID,94.8429,VALID,0,VALID,21.7444,VALID,5,VALID,0.177734,
2011-09-18, 00:37:04,VALID,917.765,VALID,0,VALID,94.8124,VALID,0,VALID,21.7883,VALID,5,VALID,0.467187,
2011-09-18, 00:38:04,VALID,917.749,VALID,0,VALID,94.7438,VALID,0,VALID,21.7298,VALID,5,VALID,0.806641,
2011-09-18, 00:39:04,VALID,917.699,VALID,0,VALID,94.7896,VALID,0,VALID,21.7103,VALID,5,VALID,1.06953,
2011-09-18, 00:40:04,VALID,917.685,VALID,0,VALID,94.8887,VALID,0,VALID,21.6696,VALID,5,VALID,1.33203,
2011-09-18, 00:41:04,VALID,917.649,VALID,0,VALID,94.9649,VALID,0,VALID,21.6323,VALID,5,VALID,1.29805,
2011-09-18, 00:42:04,VALID,917.607,VALID,0,VALID,94.9801,VALID,0,VALID,21.6729,VALID,5,VALID,1.48125,
2011-09-18, 00:43:04,VALID,917.619,VALID,0,VALID,95.0259,VALID,0,VALID,21.5737,VALID,5,VALID,1.15781,
2011-09-18, 00:44:04,VALID,917.607,VALID,0,VALID,95.1174,VALID,0,VALID,21.5542,VALID,5,VALID,1.03555,
2011-09-18, 00:45:04,VALID,917.593,VALID,0,VALID,95.1631,VALID,0,VALID,21.5542,VALID,5,VALID,1.16094,
2011-09-18, 00:46:04,VALID,917.582,VALID,0,VALID,95.2698,VALID,0,VALID,21.5559,VALID,5,VALID,0.95625,
2011-09-18, 00:47:04,VALID,917.565,VALID,0,VALID,95.3842,VALID,0,VALID,21.5168,VALID,5,VALID,0.624609,
2011-09-18, 00:48:04,VALID,917.561,VALID,0,VALID,95.4375,VALID,0,VALID,21.4957,VALID,5,VALID,0.884766,
2011-09-18, 00:49:04,VALID,917.556,VALID,0,VALID,95.529,VALID,0,VALID,21.4973,VALID,5,VALID,0.617578,
2011-09-18, 00:50:04,VALID,917.558,VALID,0,VALID,95.6434,VALID,0,VALID,21.4762,VALID,5,VALID,0.380469,
2011-09-18, 00:51:04,VALID,917.54,VALID,0,VALID,95.7654,VALID,0,VALID,21.5152,VALID,5,VALID,0.128906,
2011-09-18, 00:52:04,VALID,917.541,VALID,0,VALID,95.6967,VALID,0,VALID,21.4957,VALID,5,VALID,0.238281,
2011-09-18, 00:53:04,VALID,917.571,VALID,0,VALID,95.6967,VALID,0,VALID,21.4762,VALID,5,VALID,0.517969,
2011-09-18, 00:54:04,VALID,917.581,VALID,0,VALID,95.6815,VALID,0,VALID,21.4973,VALID,5,VALID,0.437109,
2011-09-18, 00:55:04,VALID,917.553,VALID,0,VALID,95.712,VALID,0,VALID,21.455,VALID,5,VALID,0.627734,
2011-09-18, 00:56:04,VALID,917.561,VALID,0,VALID,95.773,VALID,0,VALID,21.4567,VALID,5,VALID,0.682813,
2011-09-18, 00:57:04,VALID,917.575,VALID,0,VALID,95.6967,VALID,0,VALID,21.4567,VALID,5,VALID,0.55,
2011-09-18, 00:58:04,VALID,917.555,VALID,0,VALID,95.7425,VALID,0,VALID,21.455,VALID,5,VALID,0.0117188,
2011-09-18, 00:59:04,VALID,917.543,VALID,0,VALID,95.6281,VALID,0,VALID,21.4778,VALID,5,VALID,0.153906,
2011-09-18, 01:00:04,VALID,917.516,VALID,0,VALID,95.6053,VALID,0,VALID,21.4567,VALID,5,VALID,0,
2011-09-18, 01:01:04,VALID,917.483,VALID,0,VALID,95.6205,VALID,0,VALID,21.5168,VALID,5,VALID,0,
2011-09-18, 01:02:04,VALID,917.471,VALID,0,VALID,95.6053,VALID,0,VALID,21.5152,VALID,5,VALID,0.165234,
2011-09-18, 01:03:04,VALID,917.466,VALID,0,VALID,95.4528,VALID,0,VALID,21.5363,VALID,5,VALID,0.268359,
2011-09-18, 01:04:04,VALID,917.45,VALID,0,VALID,95.4147,VALID,0,VALID,21.5363,VALID,5,VALID,0.319531,
2011-09-18, 01:05:04,VALID,917.417,VALID,0,VALID,95.468,VALID,0,VALID,21.5542,VALID,5,VALID,0.291406,
2011-09-18, 01:06:04,VALID,917.375,VALID,0,VALID,95.3613,VALID,0,VALID,21.5542,VALID,5,VALID,0.0503906,
2011-09-18, 01:07:04,VALID,917.385,VALID,0,VALID,95.3003,VALID,0,VALID,21.5542,VALID,5,VALID,0,
2011-09-18, 01:08:04,VALID,917.333,VALID,0,VALID,95.2241,VALID,0,VALID,21.5737,VALID,5,VALID,0,
2011-09-18, 01:09:04,VALID,917.314,VALID,0,VALID,95.1097,VALID,0,VALID,21.5542,VALID,5,VALID,0.328125,
2011-09-18, 01:10:04,VALID,917.273,VALID,0,VALID,95.0792,VALID,0,VALID,21.5542,VALID,5,VALID,0.189844,
2011-09-18, 01:11:04,VALID,917.266,VALID,0,VALID,95.0488,VALID,0,VALID,21.5949,VALID,5,VALID,0.0601562,
2011-09-18, 01:12:04,VALID,917.244,VALID,0,VALID,95.0183,VALID,0,VALID,21.5932,VALID,5,VALID,0,
2011-09-18, 01:13:04,VALID,917.241,VALID,0,VALID,94.9344,VALID,0,VALID,21.5737,VALID,5,VALID,0.0960938,
2011-09-18, 01:14:04,VALID,917.172,VALID,0,VALID,94.8582,VALID,0,VALID,21.5949,VALID,5,VALID,0.198437,
2011-09-18, 01:15:04,VALID,917.176,VALID,0,VALID,94.8963,VALID,0,VALID,21.5932,VALID,5,VALID,0.096875,
2011-09-18, 01:16:04,VALID,917.189,VALID,0,VALID,94.7743,VALID,0,VALID,21.5737,VALID,5,VALID,0.355078,
2011-09-18, 01:17:04,VALID,917.151,VALID,0,VALID,94.7514,VALID,0,VALID,21.6144,VALID,5,VALID,0.281641,
2011-09-18, 01:18:04,VALID,917.162,VALID,0,VALID,94.7362,VALID,0,VALID,21.5542,VALID,5,VALID,0.401172,
2011-09-18, 01:19:04,VALID,917.141,VALID,0,VALID,94.7819,VALID,0,VALID,21.5737,VALID,5,VALID,0.457422,
2011-09-18, 01:20:04,VALID,917.156,VALID,0,VALID,94.6447,VALID,0,VALID,21.5542,VALID,5,VALID,0.594531,
2011-09-18, 01:21:04,VALID,917.137,VALID,0,VALID,94.6218,VALID,0,VALID,21.4957,VALID,5,VALID,0.494531,
2011-09-18, 01:22:04,VALID,917.111,VALID,0,VALID,94.5456,VALID,0,VALID,21.4778,VALID,5,VALID,0.717969,
2011-09-18, 01:23:04,VALID,917.095,VALID,0,VALID,94.6447,VALID,0,VALID,21.4177,VALID,5,VALID,0.79375,
2011-09-18, 01:24:04,VALID,917.083,VALID,0,VALID,94.7667,VALID,0,VALID,21.3786,VALID,5,VALID,0.7,
2011-09-18, 01:25:04,VALID,917.055,VALID,0,VALID,94.9496,VALID,0,VALID,21.3786,VALID,4,VALID,0.548047,
2011-09-18, 01:26:04,VALID,917.035,VALID,0,VALID,95.0488,VALID,0,VALID,21.3803,VALID,4,VALID,0.584766,
2011-09-18, 01:27:04,VALID,917.01,VALID,0,VALID,95.0488,VALID,0,VALID,21.3819,VALID,4,VALID,0.714063,
2011-09-18, 01:28:04,VALID,917.019,VALID,0,VALID,95.0792,VALID,0,VALID,21.3201,VALID,4,VALID,0.505078,
2011-09-18, 01:29:04,VALID,916.972,VALID,0,VALID,95.064,VALID,0,VALID,21.2811,VALID,4,VALID,0.676953,
2011-09-18, 01:30:04,VALID,916.964,VALID,0,VALID,95.0564,VALID,0,VALID,21.2827,VALID,4,VALID,0.534766,
2011-09-18, 01:31:04,VALID,916.942,VALID,0,VALID,95.1555,VALID,0,VALID,21.2632,VALID,4,VALID,0.65,
2011-09-18, 01:32:04,VALID,916.921,VALID,0,VALID,95.2622,VALID,0,VALID,21.2421,VALID,4,VALID,0.256641,
2011-09-18, 01:33:04,VALID,916.923,VALID,0,VALID,95.2698,VALID,0,VALID,21.2437,VALID,4,VALID,0.294531,
2011-09-18, 01:34:04,VALID,916.894,VALID,0,VALID,95.3003,VALID,0,VALID,21.2242,VALID,4,VALID,0.448828,
2011-09-18, 01:35:04,VALID,916.831,VALID,0,VALID,95.3232,VALID,0,VALID,21.2242,VALID,4,VALID,0.575391,
2011-09-18, 01:36:04,VALID,916.863,VALID,0,VALID,95.3003,VALID,0,VALID,21.1852,VALID,4,VALID,0.422266,
2011-09-18, 01:37:04,VALID,916.83,VALID,0,VALID,95.3537,VALID,0,VALID,21.1445,VALID,4,VALID,0.227344,
2011-09-18, 01:38:04,VALID,916.758,VALID,0,VALID,95.4147,VALID,0,VALID,21.1445,VALID,4,VALID,0.0445312,
2011-09-18, 01:39:04,VALID,916.789,VALID,0,VALID,95.4528,VALID,0,VALID,21.1461,VALID,4,VALID,0.348047,
2011-09-18, 01:40:04,VALID,916.763,VALID,0,VALID,95.5062,VALID,0,VALID,21.1461,VALID,4,VALID,0.456641,
2011-09-18, 01:41:04,VALID,916.745,VALID,0,VALID,95.4375,VALID,0,VALID,21.1266,VALID,4,VALID,0.690234,
2011-09-18, 01:42:04,VALID,916.731,VALID,0,VALID,95.468,VALID,0,VALID,21.047,VALID,4,VALID,0.655859,
2011-09-18, 01:43:04,VALID,916.742,VALID,0,VALID,95.5214,VALID,0,VALID,21.0681,VALID,4,VALID,0.524609,
2011-09-18, 01:44:04,VALID,916.712,VALID,0,VALID,95.6129,VALID,0,VALID,21.0096,VALID,4,VALID,0.623047,
2011-09-18, 01:45:04,VALID,916.729,VALID,0,VALID,95.651,VALID,0,VALID,21.0096,VALID,343,VALID,1,
2011-09-18, 01:46:04,VALID,916.745,VALID,0,VALID,95.7577,VALID,0,VALID,20.9706,VALID,322,VALID,0.702734,
2011-09-18, 01:47:04,VALID,916.77,VALID,0,VALID,95.8568,VALID,0,VALID,20.9511,VALID,322,VALID,0.639453,
2011-09-18, 01:48:04,VALID,916.762,VALID,0,VALID,95.9407,VALID,0,VALID,20.93,VALID,322,VALID,0.383203,
2011-09-18, 01:49:04,VALID,916.795,VALID,0,VALID,96.0474,VALID,0,VALID,20.9706,VALID,322,VALID,0.555078,
2011-09-18, 01:50:04,VALID,916.781,VALID,0,VALID,96.1236,VALID,0,VALID,20.9495,VALID,322,VALID,0.280469,
2011-09-18, 01:51:04,VALID,916.81,VALID,0,VALID,96.1541,VALID,0,VALID,20.9706,VALID,322,VALID,0.523438,
2011-09-18, 01:52:04,VALID,916.793,VALID,0,VALID,96.1923,VALID,0,VALID,20.9917,VALID,322,VALID,0.406641,
2011-09-18, 01:53:04,VALID,916.799,VALID,0,VALID,96.2456,VALID,0,VALID,20.9917,VALID,322,VALID,0.584766,
2011-09-18, 01:54:04,VALID,916.817,VALID,0,VALID,96.2914,VALID,0,VALID,21.0112,VALID,322,VALID,1.02188,
2011-09-18, 01:55:04,VALID,916.795,VALID,0,VALID,96.299,VALID,0,VALID,20.9885,VALID,322,VALID,0.748438,
2011-09-18, 01:56:04,VALID,916.807,VALID,0,VALID,96.3447,VALID,0,VALID,20.9268,VALID,322,VALID,0.330469,
2011-09-18, 01:57:04,VALID,916.777,VALID,0,VALID,96.3905,VALID,0,VALID,21.0892,VALID,322,VALID,0.651953,
2011-09-18, 01:58:04,VALID,916.753,VALID,0,VALID,96.3524,VALID,0.107441,VALID,21.0259,VALID,322,VALID,0.485547,
2011-09-18, 01:59:04,VALID,916.747,VALID,0,VALID,96.4286,VALID,0,VALID,21.0032,VALID,322,VALID,0.171875,
2011-09-18, 02:00:04,VALID,916.701,VALID,0,VALID,96.421,VALID,0,VALID,21.0876,VALID,322,VALID,0.511328,
2011-09-18, 02:01:04,VALID,916.709,VALID,0,VALID,96.421,VALID,0.107441,VALID,21.0633,VALID,322,VALID,0.793359,
2011-09-18, 02:02:04,VALID,916.708,VALID,0,VALID,96.3676,VALID,0,VALID,21.0649,VALID,322,VALID,0.776563,
2011-09-18, 02:03:04,VALID,916.657,VALID,0,VALID,96.4133,VALID,0,VALID,21.0828,VALID,322,VALID,0.895312,
2011-09-18, 02:04:04,VALID,916.692,VALID,0,VALID,96.3752,VALID,0,VALID,21.086,VALID,322,VALID,0.890625,
2011-09-18, 02:05:04,VALID,916.669,VALID,0,VALID,96.3295,VALID,0,VALID,21.1461,VALID,19,VALID,0.873438,
2011-09-18, 02:06:04,VALID,916.667,VALID,0,VALID,96.3142,VALID,0,VALID,21.1039,VALID,19,VALID,1.03437,
2011-09-18, 02:07:04,VALID,916.631,VALID,0,VALID,96.2151,VALID,0,VALID,21.125,VALID,19,VALID,0.669922,
2011-09-18, 02:08:04,VALID,916.657,VALID,0,VALID,96.2609,VALID,0,VALID,21.1055,VALID,19,VALID,0.769141,
2011-09-18, 02:09:04,VALID,916.654,VALID,0,VALID,96.2533,VALID,0,VALID,21.1039,VALID,19,VALID,0.842969,
2011-09-18, 02:10:04,VALID,916.683,VALID,0,VALID,96.2304,VALID,0,VALID,21.0665,VALID,19,VALID,0.473437,
2011-09-18, 02:11:04,VALID,916.655,VALID,0,VALID,96.299,VALID,0,VALID,21.1055,VALID,19,VALID,0.735156,
2011-09-18, 02:12:04,VALID,916.667,VALID,0,VALID,96.2837,VALID,0,VALID,21.0844,VALID,19,VALID,0.417578,
2011-09-18, 02:13:04,VALID,916.655,VALID,0,VALID,96.2685,VALID,0,VALID,21.1055,VALID,19,VALID,0.262891,
2011-09-18, 02:14:04,VALID,916.632,VALID,0,VALID,96.2075,VALID,0,VALID,21.1673,VALID,19,VALID,0.126172,
2011-09-18, 02:15:04,VALID,916.658,VALID,0,VALID,96.1846,VALID,0,VALID,21.0844,VALID,19,VALID,0.114453,
2011-09-18, 02:16:04,VALID,916.643,VALID,0,VALID,96.1694,VALID,0,VALID,21.1266,VALID,19,VALID,0.123438,
2011-09-18, 02:17:04,VALID,916.643,VALID,0,VALID,96.1694,VALID,0,VALID,21.1868,VALID,19,VALID,0.159766,
2011-09-18, 02:18:04,VALID,916.613,VALID,0,VALID,96.1389,VALID,0,VALID,21.1884,VALID,19,VALID,0.173047,
2011-09-18, 02:19:04,VALID,916.632,VALID,0,VALID,96.1236,VALID,0,VALID,21.1055,VALID,19,VALID,0.128125,
2011-09-18, 02:20:04,VALID,916.619,VALID,0,VALID,96.0398,VALID,0,VALID,21.1266,VALID,19,VALID,0.0496094,
2011-09-18, 02:21:04,VALID,916.649,VALID,0,VALID,96.0017,VALID,0,VALID,21.1266,VALID,19,VALID,0.204688,
2011-09-18, 02:22:04,VALID,916.631,VALID,0,VALID,95.9712,VALID,0,VALID,21.0665,VALID,19,VALID,0.109375,
2011-09-18, 02:23:04,VALID,916.626,VALID,0,VALID,95.9636,VALID,0,VALID,21.1282,VALID,19,VALID,0.278516,
2011-09-18, 02:24:04,VALID,916.617,VALID,0,VALID,96.0245,VALID,0,VALID,21.1266,VALID,19,VALID,0.116797,
2011-09-18, 02:25:04,VALID,916.614,VALID,0,VALID,96.0322,VALID,0,VALID,21.1445,VALID,19,VALID,0,
2011-09-18, 02:26:04,VALID,916.62,VALID,0,VALID,96.0093,VALID,0.107441,VALID,21.1429,VALID,19,VALID,0.000390625,
2011-09-18, 02:27:04,VALID,916.641,VALID,0,VALID,95.9712,VALID,0,VALID,21.2047,VALID,19,VALID,0,
2011-09-18, 02:28:04,VALID,916.603,VALID,0,VALID,95.9102,VALID,0,VALID,21.1836,VALID,19,VALID,0.619141,
2011-09-18, 02:29:04,VALID,916.632,VALID,0,VALID,95.8721,VALID,0,VALID,21.1429,VALID,19,VALID,0.674219,
2011-09-18, 02:30:04,VALID,916.609,VALID,0,VALID,95.8111,VALID,0,VALID,21.1461,VALID,19,VALID,0.740234,
2011-09-18, 02:31:04,VALID,916.604,VALID,0,VALID,95.8035,VALID,0,VALID,21.1429,VALID,19,VALID,0.735156,
2011-09-18, 02:32:04,VALID,916.606,VALID,0,VALID,95.7272,VALID,0,VALID,21.1055,VALID,19,VALID,0.541016,
2011-09-18, 02:33:04,VALID,916.602,VALID,0,VALID,95.6434,VALID,0,VALID,21.0617,VALID,19,VALID,0.403125,
2011-09-18, 02:34:04,VALID,916.585,VALID,0,VALID,95.6586,VALID,0,VALID,21.1039,VALID,19,VALID,0.448438,
2011-09-18, 02:35:04,VALID,916.569,VALID,0,VALID,95.6357,VALID,0,VALID,21.0828,VALID,19,VALID,0.24375,
2011-09-18, 02:36:04,VALID,916.567,VALID,0,VALID,95.6357,VALID,0,VALID,21.1673,VALID,19,VALID,0.309375,
2011-09-18, 02:37:04,VALID,916.541,VALID,0,VALID,95.59,VALID,0,VALID,21.125,VALID,19,VALID,0.0441406,
2011-09-18, 02:38:04,VALID,916.522,VALID,0,VALID,95.5443,VALID,0.107441,VALID,21.125,VALID,19,VALID,0,
2011-09-18, 02:39:04,VALID,916.527,VALID,0,VALID,95.529,VALID,0,VALID,21.1234,VALID,19,VALID,0,
2011-09-18, 02:40:04,VALID,916.496,VALID,0,VALID,95.4985,VALID,0,VALID,21.0844,VALID,19,VALID,0.26875,
2011-09-18, 02:41:04,VALID,916.491,VALID,0,VALID,95.468,VALID,0,VALID,21.1266,VALID,19,VALID,0,
2011-09-18, 02:42:04,VALID,916.456,VALID,0,VALID,95.4147,VALID,0,VALID,21.19,VALID,19,VALID,0,
2011-09-18, 02:43:04,VALID,916.452,VALID,0,VALID,95.3689,VALID,0,VALID,21.1071,VALID,19,VALID,0.320313,
2011-09-18, 02:44:04,VALID,916.434,VALID,0,VALID,95.3308,VALID,0,VALID,21.0649,VALID,19,VALID,0.195313,
2011-09-18, 02:45:04,VALID,916.428,VALID,0,VALID,95.2851,VALID,0,VALID,21.1071,VALID,19,VALID,0.40625,
2011-09-18, 02:46:04,VALID,916.431,VALID,0,VALID,95.2088,VALID,0,VALID,21.0665,VALID,19,VALID,0.735547,
2011-09-18, 02:47:04,VALID,916.436,VALID,0,VALID,95.186,VALID,0,VALID,21.0681,VALID,279,VALID,0.821875,
2011-09-18, 02:48:04,VALID,916.423,VALID,0,VALID,95.247,VALID,0,VALID,21.0486,VALID,279,VALID,0.438672,
2011-09-18, 02:49:04,VALID,916.417,VALID,0,VALID,95.3232,VALID,0,VALID,21.008,VALID,279,VALID,0.498437,
2011-09-18, 02:50:04,VALID,916.438,VALID,0,VALID,95.3918,VALID,0,VALID,21.0096,VALID,279,VALID,0.460938,
2011-09-18, 02:51:04,VALID,916.443,VALID,0,VALID,95.4909,VALID,0,VALID,21.0096,VALID,279,VALID,0.249219,
2011-09-18, 02:52:04,VALID,916.463,VALID,0,VALID,95.6205,VALID,0,VALID,21.0096,VALID,279,VALID,0,
2011-09-18, 02:53:04,VALID,916.421,VALID,0,VALID,95.651,VALID,0,VALID,21.0291,VALID,279,VALID,0.380078,
2011-09-18, 02:54:04,VALID,916.442,VALID,0,VALID,95.6815,VALID,0,VALID,20.9885,VALID,279,VALID,0,
2011-09-18, 02:55:04,VALID,916.411,VALID,0,VALID,95.712,VALID,0,VALID,21.0096,VALID,279,VALID,0,
2011-09-18, 02:56:04,VALID,916.439,VALID,0,VALID,95.7425,VALID,0,VALID,20.9674,VALID,279,VALID,0,
2011-09-18, 02:57:04,VALID,916.386,VALID,0,VALID,95.8111,VALID,0.107441,VALID,20.9869,VALID,279,VALID,0,
2011-09-18, 02:58:04,VALID,916.431,VALID,0,VALID,95.8187,VALID,0,VALID,20.9869,VALID,279,VALID,0,
2011-09-18, 02:59:04,VALID,916.406,VALID,0,VALID,95.7806,VALID,0,VALID,20.9658,VALID,279,VALID,0.009375,
2011-09-18, 03:00:04,VALID,916.397,VALID,0,VALID,95.712,VALID,0,VALID,20.9479,VALID,279,VALID,0,
2011-09-18, 03:01:04,VALID,916.356,VALID,0,VALID,95.7577,VALID,0,VALID,20.9479,VALID,279,VALID,0.128516,
2011-09-18, 03:02:04,VALID,916.385,VALID,0,VALID,95.8035,VALID,0,VALID,20.9268,VALID,279,VALID,0,
2011-09-18, 03:03:04,VALID,916.354,VALID,0,VALID,95.8263,VALID,0,VALID,20.969,VALID,279,VALID,0,
2011-09-18, 03:04:04,VALID,916.381,VALID,0,VALID,95.6891,VALID,0,VALID,20.9495,VALID,279,VALID,0,
2011-09-18, 03:05:04,VALID,916.355,VALID,0,VALID,95.6129,VALID,0,VALID,20.9105,VALID,279,VALID,0,
2011-09-18, 03:06:04,VALID,916.372,VALID,0,VALID,95.6357,VALID,0,VALID,20.9105,VALID,279,VALID,0.144141,
2011-09-18, 03:07:04,VALID,916.361,VALID,0,VALID,95.6434,VALID,0,VALID,20.891,VALID,279,VALID,0,
2011-09-18, 03:08:04,VALID,916.389,VALID,0,VALID,95.5976,VALID,0,VALID,20.9542,VALID,279,VALID,0.0929687,
2011-09-18, 03:09:04,VALID,916.363,VALID,0,VALID,95.6662,VALID,0,VALID,20.891,VALID,279,VALID,0,
2011-09-18, 03:10:04,VALID,916.393,VALID,0,VALID,95.7272,VALID,0,VALID,20.891,VALID,279,VALID,0,
2011-09-18, 03:11:04,VALID,916.411,VALID,0,VALID,95.7196,VALID,0.107441,VALID,20.9105,VALID,279,VALID,0,
2011-09-18, 03:12:04,VALID,916.419,VALID,0,VALID,95.7577,VALID,0,VALID,20.93,VALID,279,VALID,0,
2011-09-18, 03:13:04,VALID,916.464,VALID,0,VALID,95.8111,VALID,0,VALID,20.9495,VALID,279,VALID,0,
2011-09-18, 03:14:04,VALID,916.465,VALID,0,VALID,95.8111,VALID,0,VALID,20.969,VALID,279,VALID,0,
2011-09-18, 03:15:04,VALID,916.487,VALID,0,VALID,95.8263,VALID,0,VALID,20.9674,VALID,279,VALID,0.129297,
2011-09-18, 03:16:04,VALID,916.488,VALID,0,VALID,95.834,VALID,0,VALID,21.008,VALID,279,VALID,0.183594,
2011-09-18, 03:17:04,VALID,916.513,VALID,0,VALID,95.773,VALID,0,VALID,20.9674,VALID,279,VALID,0.4625,
2011-09-18, 03:18:04,VALID,916.564,VALID,0,VALID,95.7196,VALID,0,VALID,21.0096,VALID,279,VALID,0.377344,
2011-09-18, 03:19:04,VALID,916.552,VALID,0,VALID,95.7044,VALID,0,VALID,20.9674,VALID,279,VALID,0.383594,
2011-09-18, 03:20:04,VALID,916.574,VALID,0,VALID,95.7196,VALID,0,VALID,20.969,VALID,279,VALID,0.0976563,
2011-09-18, 03:21:04,VALID,916.537,VALID,0,VALID,95.7196,VALID,0,VALID,20.969,VALID,279,VALID,0.141406,
2011-09-18, 03:22:04,VALID,916.526,VALID,0,VALID,95.6967,VALID,0,VALID,20.9479,VALID,279,VALID,0.364453,
2011-09-18, 03:23:04,VALID,916.539,VALID,0,VALID,95.7425,VALID,0,VALID,20.9463,VALID,279,VALID,0.322266,
2011-09-18, 03:24:04,VALID,916.545,VALID,0,VALID,95.7806,VALID,0,VALID,20.9479,VALID,279,VALID,0.482422,
2011-09-18, 03:25:04,VALID,916.53,VALID,0,VALID,95.8263,VALID,0,VALID,20.9268,VALID,279,VALID,0.468359,
2011-09-18, 03:26:04,VALID,916.51,VALID,0,VALID,95.9026,VALID,0,VALID,20.9885,VALID,279,VALID,0.571094,
2011-09-18, 03:27:04,VALID,916.459,VALID,0,VALID,95.9254,VALID,0,VALID,20.9463,VALID,279,VALID,0.602344,
2011-09-18, 03:28:04,VALID,916.46,VALID,0,VALID,95.8492,VALID,0,VALID,20.9674,VALID,279,VALID,0.723828,
2011-09-18, 03:29:04,VALID,916.433,VALID,0,VALID,95.7501,VALID,0.107441,VALID,20.93,VALID,279,VALID,0.933203,
2011-09-18, 03:30:04,VALID,916.425,VALID,0,VALID,95.6815,VALID,0,VALID,20.8504,VALID,279,VALID,0.710156,
2011-09-18, 03:31:04,VALID,916.423,VALID,0,VALID,95.7196,VALID,0,VALID,20.8113,VALID,279,VALID,0.595312,
2011-09-18, 03:32:04,VALID,916.428,VALID,0,VALID,95.7654,VALID,0,VALID,20.7528,VALID,279,VALID,0.467969,
2011-09-18, 03:33:04,VALID,916.433,VALID,0,VALID,95.8721,VALID,0,VALID,20.7333,VALID,279,VALID,0.329297,
2011-09-18, 03:34:04,VALID,916.421,VALID,0,VALID,95.9026,VALID,0,VALID,20.7138,VALID,279,VALID,0.496484,
2011-09-18, 03:35:04,VALID,916.442,VALID,0,VALID,95.9712,VALID,0.107441,VALID,20.7154,VALID,279,VALID,0.405469,
2011-09-18, 03:36:04,VALID,916.404,VALID,0,VALID,96.0474,VALID,0,VALID,20.7154,VALID,279,VALID,0.26875,
2011-09-18, 03:37:04,VALID,916.404,VALID,0,VALID,96.0703,VALID,0,VALID,20.6959,VALID,279,VALID,0.494531,
2011-09-18, 03:38:04,VALID,916.397,VALID,0,VALID,96.116,VALID,0,VALID,20.6764,VALID,279,VALID,0.314844,
2011-09-18, 03:39:04,VALID,916.41,VALID,0,VALID,96.177,VALID,0,VALID,20.6764,VALID,279,VALID,0.494141,
2011-09-18, 03:40:04,VALID,916.413,VALID,0,VALID,96.2304,VALID,0,VALID,20.6569,VALID,279,VALID,0.00585938,
2011-09-18, 03:41:05,VALID,916.418,VALID,0,VALID,96.3295,VALID,0.107441,VALID,20.6553,VALID,279,VALID,0.175,
2011-09-18, 03:42:04,VALID,916.41,VALID,0,VALID,96.3752,VALID,0,VALID,20.6959,VALID,279,VALID,0.0363281,
2011-09-18, 03:43:05,VALID,916.445,VALID,0,VALID,96.4362,VALID,0,VALID,20.7154,VALID,279,VALID,0.0964844,
2011-09-18, 03:44:05,VALID,916.425,VALID,0,VALID,96.421,VALID,0,VALID,20.717,VALID,279,VALID,0.438672,
2011-09-18, 03:45:05,VALID,916.434,VALID,0,VALID,96.4057,VALID,0,VALID,20.6764,VALID,279,VALID,0.565625,
2011-09-18, 03:46:05,VALID,916.434,VALID,0,VALID,96.4743,VALID,0,VALID,20.7154,VALID,279,VALID,0.548437,
2011-09-18, 03:47:05,VALID,916.451,VALID,0,VALID,96.5048,VALID,0,VALID,20.6943,VALID,279,VALID,0.435937,
2011-09-18, 03:48:05,VALID,916.411,VALID,0,VALID,96.4896,VALID,0,VALID,20.7365,VALID,279,VALID,1.00508,